Content
SEND FEEDBACK

Daily
Averages
Monthly
Summary
United States of America

ACHANG BAY, GUAM


Home > North America > United States > Guam
Elevation: 30 feet     Latitude: 13 16N     Longitude: 144 45E

WEATHER
 
SELECT A DAY
Number of Records: 342,219;   Date Range: 1/1/95 - 8/28/14
 
SHARE

PRINT THIS DATA

[ ← Previous Day ]
WEATHER ALMANAC - FEBRUARY 2, 2013
[ Next Day → ]
[ °C ]   °F
Weather ElementAverageHighLow
Temperature78.4 °F82.4 °F (1:46 pm)75.2 °F (6:35 am)
Dewpoint67.1 °F69.8 °F (1:46 pm)63.3 °F (1:55 am)
Humidity68.5 %75 % (11:55 pm)62 % (11:55 am)
Barometer29.95 in30.01 in (8:55 am)29.91 in (2:55 pm)
Wind Speed22.4 mph26.5 mph (2:09 pm)
Wind Gust32.2 mph (12:55 pm)
Weather ElementAverage
Visibility10 mi
Wind DirectionENE (54.6 °)

Weather ElementTotal
Precipitation---
Cooling Degree Days13.8 (Base 65)
Growing Degree Days28.8 (Base 50)
Averaged from 37 records on February 2, 2013
WEATHER CONDITIONS BREAKOUT
WIND DIRECTION BREAKOUT
WEATHER BY HOUR - FEBRUARY 2, 2013
[ °C ]   °F
Local TimeTemperatureDewpointHumidityBarometerVisibilityWind DirectionWind SpeedGust SpeedPrecipitationEventsConditions
1:55 AM75.9 °F63.3 °F65 %29.97 in10.0 miENE (60°)18.4 mph26.5 mphMostly Cloudy
2:55 AM75.6 °F63.3 °F66 %29.95 in10.0 miENE (60°)19.6 mphScattered Clouds
3:55 AM75.7 °F64.4 °F68 %29.94 in10.0 miENE (70°)19.6 mph28.8 mphScattered Clouds
4:55 AM75.6 °F66.4 °F73 %29.96 in10.0 miENE (60°)20.7 mph27.6 mphScattered Clouds
5:55 AM75.6 °F66.4 °F73 %29.96 in10.0 miENE (60°)23.0 mph29.9 mphScattered Clouds
6:35 AM75.2 °F64.4 °F69 %29.97 in10.0 miNE (50°)21.9 mphMostly Cloudy
6:37 AM75.2 °F66.2 °F73 %29.97 in10.0 miENE (60°)19.6 mphMostly Cloudy
6:55 AM75.9 °F64.6 °F68 %29.98 in10.0 miENE (60°)24.2 mph29.9 mphScattered Clouds
7:55 AM77.0 °F66.9 °F71 %30.00 in10.0 miNE (50°)24.2 mph29.9 mphScattered Clouds
8:55 AM78.4 °F67.1 °F68 %30.01 in10.0 miNE (50°)21.9 mphPartly Cloudy
9:55 AM79.9 °F67.6 °F66 %30.00 in10.0 miENE (60°)21.9 mph29.9 mphPartly Cloudy
10:55 AM81.3 °F68.9 °F66 %29.99 in10.0 miNE (50°)19.6 mph28.8 mphPartly Cloudy
11:55 AM82.2 °F68.2 °F62 %29.96 in10.0 miNE (50°)21.9 mphPartly Cloudy
12:55 PM82.0 °F68.7 °F64 %29.94 in10.0 miENE (60°)23.0 mph32.2 mphScattered Clouds
1:46 PM82.4 °F69.8 °F66 %29.93 in10.0 miNE (50°)20.7 mph31.1 mphMostly Cloudy
1:53 PM82.4 °F68.0 °F62 %29.93 in10.0 miNE (40°)23.0 mph27.6 mphScattered Clouds
1:55 PM81.7 °F67.6 °F62 %29.93 in10.0 miNE (40°)25.3 mphScattered Clouds
1:56 PM82.4 °F68.0 °F62 %29.92 in10.0 miNE (50°)24.2 mph27.6 mphMostly Cloudy
2:09 PM82.4 °F68.0 °F62 %29.92 in10.0 miENE (60°)26.5 mph29.9 mphScattered Clouds
2:55 PM81.7 °F68.4 °F64 %29.91 in10.0 miNE (40°)24.2 mph28.8 mphPartly Cloudy
3:55 PM79.7 °F68.0 °F67 %29.91 in10.0 miNE (50°)21.9 mph28.8 mphScattered Clouds
4:13 PM78.8 °F68.0 °F69 %29.91 in10.0 miNE (50°)21.9 mph29.9 mphMostly Cloudy
4:31 PM78.8 °F68.0 °F69 %29.91 in10.0 miNE (50°)23.0 mph28.8 mphMostly Cloudy
4:44 PM77.0 °F68.0 °F74 %29.91 in10.0 miENE (60°)23.0 mph29.9 mphMostly Cloudy
4:47 PM77.0 °F68.0 °F74 %29.91 in10.0 miNE (50°)25.3 mph29.9 mphMostly Cloudy
4:55 PM78.4 °F65.8 °F65 %29.91 in10.0 miENE (60°)24.2 mphScattered Clouds
5:55 PM78.3 °F67.1 °F68 %29.92 in10.0 miNE (50°)21.9 mph28.8 mphMostly Cloudy
6:02 PM78.8 °F68.0 °F69 %29.92 in10.0 miENE (60°)24.2 mphMostly Cloudy
6:14 PM77.0 °F66.2 °F69 %29.93 in10.0 miENE (60°)23.0 mph27.6 mphMostly Cloudy
6:55 PM77.5 °F66.7 °F69 %29.94 in10.0 miNE (50°)23.0 mph28.8 mphMostly Cloudy
7:55 PM77.4 °F66.7 °F70 %29.95 in10.0 miNE (50°)24.2 mph28.8 mphScattered Clouds
8:55 PM77.2 °F68.2 °F74 %29.97 in10.0 miENE (60°)21.9 mph27.6 mphMostly Cloudy
9:55 PM77.4 °F67.5 °F71 %29.97 in10.0 miNE (50°)19.6 mph28.8 mphMostly Cloudy
10:06 PM77.0 °F68.0 °F74 %29.98 in10.0 miENE (60°)21.9 mph27.6 mphMostly Cloudy
10:28 PM77.0 °F68.0 °F74 %29.98 in10.0 miENE (60°)23.0 mph27.6 mphMostly Cloudy
10:55 PM76.8 °F67.1 °F72 %29.98 in10.0 miENE (60°)24.2 mphScattered Clouds
11:55 PM77.0 °F68.5 °F75 %29.97 in10.0 miENE (60°)20.7 mph26.5 mphPartly Cloudy
Hourly data recorded from PGUA, located miles away from Achang Bay, Guam







STORIES FROM OUR PARTNERS